When you browse on this site, cookies collect data to enhance your experience and personalize the content and advertising you see.
Visit our Privacy Policy to learn more. By continuing to use the site, you agree to this use of cookies and data.
  • In Spain
  • List of Countries
  • For 7 days
  • Water Temperature
  • Satellite Maps
  • Weather Map
  • Weather Widgets
  • user-avatar
    Login

    Hourly Weather Ayutla

    Today, 17 December, Monday

    Time Temperature Precipitation Wind Pressure Humidity
    00:00 +18°C° 0 mm 1 mps 662 mmHg 60%
    01:00 +18°C° 0 mm 1 mps 662 mmHg 62%
    02:00 +16°C° 0 mm 1 mps 662 mmHg 63%
    03:00 +16°C° 0 mm 1 mps 662 mmHg 64%
    04:00 +16°C° 0 mm 1 mps 662 mmHg 65%
    05:00 +15°C° 0 mm 1 mps 662 mmHg 66%
    06:00 +18°C° 0 mm 1 mps 662 mmHg 61%
    07:00 +19°C° 0 mm 1 mps 663 mmHg 57%
    08:00 +19°C° 0 mm 0 mps 664 mmHg 52%
    09:00 +23°C° 0 mm 1 mps 664 mmHg 46%
    10:00 +25°C° 0 mm 1 mps 664 mmHg 41%
    11:00 +27°C° 0 mm 1 mps 664 mmHg 35%
    12:00 +28°C° 0 mm 1 mps 664 mmHg 34%
    13:00 +28°C° 0 mm 1 mps 663 mmHg 33%
    14:00 +28°C° 0 mm 2 mps 662 mmHg 32%
    15:00 +27°C° 0 mm 2 mps 662 mmHg 36%
    16:00 +25°C° 0 mm 1 mps 661 mmHg 41%
    17:00 +23°C° 0 mm 1 mps 661 mmHg 45%
    18:00 +22°C° 0 mm 1 mps 661 mmHg 48%
    19:00 +22°C° 0 mm 1 mps 662 mmHg 50%
    20:00 +21°C° 0 mm 1 mps 662 mmHg 53%
    21:00 +20°C° 0 mm 1 mps 662 mmHg 55%
    22:00 +20°C° 0 mm 1 mps 662 mmHg 57%
    23:00 +19°C° 0 mm 1 mps 662 mmHg 58%

    Tomorrow, 18 December, Tuesday

    Time Temperature Precipitation Wind Pressure Humidity
    00:00 +19°C° 0 mm 1 mps 661 mmHg 60%
    01:00 +18°C° 0 mm 1 mps 661 mmHg 62%
    02:00 +16°C° 0 mm 0 mps 661 mmHg 64%
    03:00 +16°C° 0 mm 0 mps 660 mmHg 65%
    04:00 +15°C° 0 mm 0 mps 660 mmHg 66%
    05:00 +15°C° 0 mm 0 mps 660 mmHg 68%
    06:00 +17°C° 0 mm 0 mps 661 mmHg 63%
    07:00 +18°C° 0 mm 0 mps 661 mmHg 58%
    08:00 +20°C° 0 mm 0 mps 662 mmHg 52%
    09:00 +24°C° 0 mm 1 mps 662 mmHg 48%
    10:00 +26°C° 0 mm 1 mps 662 mmHg 43%
    11:00 +28°C° 0 mm 2 mps 662 mmHg 38%
    12:00 +28°C° 0 mm 2 mps 661 mmHg 37%
    13:00 +28°C° 0 mm 2 mps 661 mmHg 35%
    14:00 +29°C° 0 mm 3 mps 660 mmHg 33%
    15:00 +27°C° 0 mm 2 mps 660 mmHg 37%
    16:00 +25°C° 0 mm 2 mps 660 mmHg 41%
    17:00 +24°C° 0 mm 1 mps 659 mmHg 46%
    18:00 +23°C° 0 mm 1 mps 660 mmHg 49%
    19:00 +22°C° 0 mm 1 mps 660 mmHg 52%
    20:00 +21°C° 0 mm 1 mps 660 mmHg 56%
    21:00 +21°C° 0 mm 1 mps 660 mmHg 58%
    22:00 +20°C° 0 mm 1 mps 660 mmHg 60%
    23:00 +20°C° 0 mm 1 mps 660 mmHg 63%

    Day after tomorrow, 19 December, Wednesday

    Time Temperature Precipitation Wind Pressure Humidity
    00:00 +17°C° 0 mm 0 mps 659 mmHg 64%
    01:00 +17°C° 0 mm 0 mps 659 mmHg 66%
    02:00 +16°C° 0 mm 0 mps 658 mmHg 68%
    03:00 +16°C° 0 mm 0 mps 658 mmHg 68%
    04:00 +16°C° 0 mm 0 mps 658 mmHg 69%
    05:00 +15°C° 0 mm 0 mps 658 mmHg 69%
    06:00 +17°C° 0 mm 0 mps 659 mmHg 64%
    07:00 +18°C° 0 mm 0 mps 660 mmHg 59%
    08:00 +20°C° 0 mm 0 mps 661 mmHg 54%
    09:00 +24°C° 0 mm 1 mps 661 mmHg 50%
    10:00 +25°C° 0 mm 2 mps 661 mmHg 45%
    11:00 +27°C° 0 mm 2 mps 661 mmHg 41%
    12:00 +27°C° 0 mm 3 mps 660 mmHg 39%
    13:00 +28°C° 0 mm 3 mps 659 mmHg 37%
    14:00 +28°C° 0 mm 4 mps 658 mmHg 35%
    15:00 +27°C° 0 mm 3 mps 658 mmHg 38%
    16:00 +25°C° 0 mm 3 mps 658 mmHg 42%
    17:00 +24°C° 0 mm 2 mps 658 mmHg 45%
    18:00 +23°C° 0 mm 2 mps 658 mmHg 48%
    19:00 +21°C° 0 mm 1 mps 659 mmHg 51%
    20:00 +20°C° 0 mm 1 mps 659 mmHg 54%
    21:00 +20°C° 0 mm 1 mps 659 mmHg 55%
    22:00 +19°C° 0 mm 1 mps 659 mmHg 56%
    23:00 +16°C° 0 mm 0 mps 659 mmHg 57%

    20 December, Thursday

    Time Temperature Precipitation Wind Pressure Humidity
    00:00 +16°C° 0 mm 0 mps 659 mmHg 58%
    01:00 +16°C° 0 mm 1 mps 659 mmHg 60%
    02:00 +16°C° 0 mm 1 mps 658 mmHg 61%
    03:00 +16°C° 0 mm 1 mps 658 mmHg 61%
    04:00 +15°C° 0 mm 1 mps 659 mmHg 62%
    05:00 +15°C° 0 mm 1 mps 659 mmHg 63%
    06:00 +18°C° 0 mm 1 mps 660 mmHg 58%
    07:00 +19°C° 0 mm 1 mps 661 mmHg 52%
    08:00 +19°C° 0 mm 0 mps 661 mmHg 47%
    09:00 +24°C° 0 mm 1 mps 662 mmHg 40%
    10:00 +26°C° 0 mm 1 mps 662 mmHg 34%
    11:00 +28°C° 0 mm 1 mps 662 mmHg 27%
    12:00 +29°C° 0 mm 1 mps 662 mmHg 25%
    13:00 +29°C° 0 mm 1 mps 661 mmHg 23%
    14:00 +30°C° 0 mm 1 mps 661 mmHg 20%
    15:00 +28°C° 0 mm 1 mps 660 mmHg 24%
    16:00 +26°C° 0 mm 1 mps 660 mmHg 28%
    17:00 +24°C° 0 mm 1 mps 660 mmHg 31%
    18:00 +23°C° 0 mm 2 mps 661 mmHg 36%
    19:00 +21°C° 0 mm 2 mps 661 mmHg 40%
    20:00 +20°C° 0 mm 2 mps 662 mmHg 44%
    21:00 +19°C° 0 mm 2 mps 662 mmHg 48%
    22:00 +18°C° 0 mm 2 mps 661 mmHg 53%
    23:00 +18°C° 0 mm 2 mps 661 mmHg 57%

    21 December, Friday

    Time Temperature Precipitation Wind Pressure Humidity
    00:00 +17°C° 0 mm 2 mps 661 mmHg 59%
    01:00 +17°C° 0 mm 2 mps 661 mmHg 60%
    02:00 +16°C° 0 mm 2 mps 660 mmHg 62%
    03:00 +16°C° 0 mm 2 mps 660 mmHg 64%
    04:00 +16°C° 0 mm 2 mps 661 mmHg 65%
    05:00 +15°C° 0 mm 2 mps 661 mmHg 66%
    06:00 +17°C° 0 mm 2 mps 661 mmHg 62%
    07:00 +18°C° 0 mm 2 mps 662 mmHg 57%
    08:00 +19°C° 0 mm 2 mps 663 mmHg 53%
    09:00 +21°C° 0 mm 2 mps 663 mmHg 46%
    10:00 +24°C° 0 mm 2 mps 663 mmHg 40%
    11:00 +26°C° 0 mm 2 mps 663 mmHg 33%
    12:00 +27°C° 0 mm 2 mps 662 mmHg 31%
    13:00 +27°C° 0 mm 2 mps 662 mmHg 29%
    14:00 +28°C° 0 mm 2 mps 661 mmHg 27%
    15:00 +26°C° 0 mm 2 mps 661 mmHg 32%
    16:00 +24°C° 0 mm 2 mps 661 mmHg 36%
    17:00 +23°C° 0 mm 2 mps 660 mmHg 41%
    18:00 +20°C° 0 mm 2 mps 661 mmHg 45%
    19:00 +19°C° 0 mm 2 mps 661 mmHg 50%
    20:00 +18°C° 0 mm 2 mps 661 mmHg 54%
    21:00 +17°C° 0 mm 2 mps 661 mmHg 56%
    22:00 +17°C° 0 mm 2 mps 661 mmHg 57%
    23:00 +16°C° 0 mm 1 mps 661 mmHg 59%

    22 December, Saturday

    Time Temperature Precipitation Wind Pressure Humidity
    00:00 +16°C° 0 mm 1 mps 661 mmHg 60%
    01:00 +15°C° 0 mm 1 mps 660 mmHg 62%
    02:00 +15°C° 0 mm 1 mps 660 mmHg 63%
    03:00 +14°C° 0 mm 1 mps 660 mmHg 63%
    04:00 +14°C° 0 mm 1 mps 660 mmHg 64%
    05:00 +14°C° 0 mm 1 mps 660 mmHg 65%
    06:00 +16°C° 0 mm 1 mps 661 mmHg 59%
    07:00 +18°C° 0 mm 1 mps 662 mmHg 53%
    08:00 +20°C° 0 mm 1 mps 662 mmHg 47%
    09:00 +22°C° 0 mm 1 mps 662 mmHg 41%
    10:00 +25°C° 0 mm 1 mps 662 mmHg 35%
    11:00 +27°C° 0 mm 1 mps 662 mmHg 29%
    12:00 +28°C° 0 mm 1 mps 662 mmHg 27%
    13:00 +28°C° 0 mm 1 mps 661 mmHg 25%
    14:00 +29°C° 0 mm 1 mps 661 mmHg 24%
    15:00 +27°C° 0 mm 1 mps 661 mmHg 28%
    16:00 +25°C° 0 mm 1 mps 660 mmHg 32%
    17:00 +23°C° 0 mm 1 mps 660 mmHg 36%
    18:00 +22°C° 0 mm 1 mps 661 mmHg 39%
    19:00 +21°C° 0 mm 1 mps 661 mmHg 43%
    20:00 +20°C° 0 mm 1 mps 662 mmHg 46%
    21:00 +19°C° 0 mm 1 mps 661 mmHg 48%
    22:00 +19°C° 0 mm 1 mps 661 mmHg 50%
    23:00 +18°C° 0 mm 1 mps 661 mmHg 51%
    Show more